Location: Camaret
(48.2753°N, 4.5961°W)
Time: 04:37:57
(UTC+00:00)

NOSS 3-4 (C) - Pass Details

Date: 29 October 2020
Orbit: 884 x 1328 km, 63.4° (Epoch: 28 November)

Event Time Altitude Azimuth Distance (km) Brightness Sun altitude
Rises 17:50:55 0° 315° (NW) 3,712 7.1 -8.4°
Reaches altitude 10° 17:53:41 10° 324° (NW) 2,822 6.3 -8.9°
Maximum altitude 17:59:46 35° 30° (NNE) 1,703 4.5 -9.9°
Enters shadow 18:05:42 13° 91° (E) 2,885 5.3 -10.8°
